Location: Unspecified
(0.0000°N, 0.0000°E)
Time: 02:31:36
(UTC+02:00)

Iridium 47 - Visible Passes

Search period start: 27 June 2016 00:00
Search period end: 07 July 2016 00:00
Orbit: 776 x 779 km, 86.4° (Epoch: 26 June)

Date Brightness Start Highest point End Pass type
(mag) Time Alt. Az. Time Alt. Az. Time Alt. Az.
27 Jun 6.6 22:05:20 10° NNE 22:07:26 24° NNE 22:07:26 24° NNE visible
28 Jun 6.7 21:32:48 10° NE 21:34:31 17° NE 21:34:31 17° NE visible
28 Jun 7.7 23:13:48 10° NW 23:15:02 14° WNW 23:15:02 14° WNW visible
29 Jun 6.6 22:39:02 10° NNW 22:42:09 31° NW 22:42:09 31° NW visible
30 Jun 5.4 22:05:14 10° N 22:09:19 56° N 22:09:19 56° N visible
01 Jul 5.5 21:32:11 10° NNE 21:36:30 38° ENE 21:36:30 38° ENE visible
01 Jul 7.9 23:15:57 10° WNW 23:17:02 11° W 23:17:02 11° W visible
02 Jul 6.4 21:00:09 10° NE 21:03:33 18° E 21:03:45 18° E visible
02 Jul 6.9 22:39:43 10° NW 22:43:57 26° W 22:44:16 25° W visible
03 Jul 5.5 22:05:25 10° NNW 22:10:30 57° W 22:11:34 48° SW visible
04 Jul 4.9 21:31:54 10° N 21:37:03 64° E 21:38:54 39° SSE visible
05 Jul 5.9 20:59:10 10° NNE 21:03:36 28° E 21:06:17 18° SE visible
05 Jul 7.6 22:40:57 10° NW 22:44:01 16° W 22:46:50 11° WSW visible
06 Jul 6.8 20:27:59 10° ENE 20:30:09 13° E 20:32:20 10° ESE visible
06 Jul 6.5 22:05:52 10° NNW 22:10:34 35° W 22:14:17 15° SSW visible
